Weather Roundup
Issued by NWS

Home | Current Version | Previous Version | Graphics & Text | Print | Product List | Glossary Off
Versions: 1 2 3 4 5 6 7 8 9 10 11 12 13 14 15 16 17 18 19 20 21 22 23 24 25 26 27 28 29 30 31 32 33 34 35 36 37 38 39 40 41 42 43 44 45 46 47 48 49 50

790
NZUS93 KARX 120610
HRRWXR

CURRENT HOURLY OBSERVATIONS ACROSS
MUCH OF THE UPPER MISSISSIPPI VALLEY
NATIONAL WEATHER SERVICE LA CROSSE WI
1200 AM CST FRI FEB 12 2016


...SOUTHEAST MINNESOTA...


CITY           SKY/WX    TMP DP  RH WIND       PRES   REMARKS
ROCHESTER      CLOUDY    12   6  77 W10       30.18F WCI  -1
ROCHESTER/MAYO CLOUDY    15   8  75 W7        30.19F WCI   5
WINONA         CLOUDY    16   9  73 W5        30.23F WCI   9
AUSTIN         CLOUDY    12   7  79 W5        30.19F WCI   4
ALBERT LEA     CLOUDY    12   9  85 W5        30.19F WCI   4
DODGE CENTER   FLURRIES  12   7  79 W9        30.18S WCI   0
PRESTON        FLURRIES  11   5  76 W6        30.19S WCI   1
OWATONNA       FLURRIES  12   9  85 W8        30.20F WCI   1
FARIBAULT      FLURRIES  14   9  79 W6        30.21F WCI   5
$$

...ELSEWHERE IN MINNESOTA...


CITY           SKY/WX    TMP DP  RH WIND       PRES   REMARKS
MINNEAPOLIS    CLOUDY    14   8  77 W7        30.22F WCI   4
INTNL FALLS    CLEAR      1  -7  68 NW10      30.14S WCI -15
DULUTH         CLOUDY     9  -1  64 NW17G24   30.09S WCI  -9
RED WING       CLOUDY    14   9  79 NW3       30.22S
REDWOOD FALLS  CLOUDY    17  13  84 NW8       30.23S WCI   7
MANKATO        CLOUDY    14   9  79 W7        30.21S WCI   4
WORTHINGTON    CLOUDY    14   9  79 W9        30.22R WCI   2
FAIRMONT       CLOUDY    14   9  79 W8        30.21S WCI   3
$$

...SOUTHWEST WISCONSIN...


CITY           SKY/WX    TMP DP  RH WIND       PRES   REMARKS
LA CROSSE      CLOUDY    15   2  56 W6        30.22F WCI   6
PRAIRIE DU CHI CLOUDY    15   4  62 CALM      30.24F
BOSCOBEL       CLOUDY    15   3  59 SW6       30.24F WCI   6
LONE ROCK      CLOUDY    15   3  59 W6        30.23F WCI   6
PLATTEVILLE    CLOUDY    14   5  67 W5        30.20F WCI   6
FORT MC COY    CLOUDY    14   3  61 W5        30.21F WCI   6
CAMP DOUGLAS   CLOUDY    14   1  57 W8        30.17F WCI   3
VIROQUA        CLOUDY    12   4  69 W6        30.17F WCI   2
WIS DELLS      CLOUDY    14   0  53 W8        30.18F WCI   3
$$

...ELSEWHERE IN WISCONSIN...


CITY           SKY/WX    TMP DP  RH WIND       PRES   REMARKS
MILWAUKEE      CLOUDY    17   0  47 W9        30.20F WCI   6
MADISON        CLOUDY    16   1  51 W6        30.20S WCI   7
GREEN BAY      CLOUDY    15   1  53 W8        30.14F WCI   4
EAU CLAIRE     CLOUDY    14   4  64 W9        30.18F WCI   2
BLACK RVR FLS  CLOUDY    15   1  54 W5        30.19F WCI   7
MEDFORD        CLOUDY    11   1  62 W12       30.08F WCI  -3
WAUSAU         CLOUDY    13   1  59 W15       30.09F WCI  -3
WIS RAPIDS     CLOUDY    14  -1  51 W8        30.16F WCI   3
MARSHFIELD     CLOUDY    13   0  56 W10       30.11F WCI   0
RICE LAKE      CLOUDY    13   6  72 W7        30.17F WCI   3
$$

...NORTHEAST IOWA...


CITY           SKY/WX    TMP DP  RH WIND       PRES   REMARKS
WATERLOO       CLOUDY    10   5  80 CALM      30.23F
DUBUQUE        CLEAR     11   5  77 SW5       30.20F WCI   3
DECORAH        CLOUDY    12   3  67 CALM      30.19F
MASON CITY     CLOUDY    12   8  84 W7        30.22S WCI   1
CHARLES CITY   CLOUDY    12   5  73 SW6       30.21F WCI   3
OELWEIN        CLOUDY    12   5  73 SW3       30.22F
$$

...ELSEWHERE IN IOWA...


CITY           SKY/WX    TMP DP  RH WIND       PRES   REMARKS
DES MOINES     CLOUDY    19  15  84 SE5       30.23F WCI  12
IOWA CITY      CLOUDY    19  16  88 W3        30.27F
FORT DODGE     CLOUDY    16  10  79 CALM      30.23S
MARSHALLTOWN   CLOUDY    16  14  92 CALM      30.22F
CEDAR RAPIDS   CLEAR     17  13  84 SW5       30.23F WCI  10
$$

...NORTHERN ILLINOIS...


CITY           SKY/WX    TMP DP  RH WIND       PRES   REMARKS
CHICAGO-OHARE  CLOUDY    18   7  62 W6        30.24F WCI  10
CHICAGO-MIDWAY CLOUDY    19   5  54 SW5       30.25F WCI  12
MOLINE         CLOUDY    22  12  65 SW3       30.25F
ROCKFORD       CLOUDY    19   7  59 SW3       30.25F
PEORIA         MOCLDY    23  10  57 SW6       30.26F WCI  16
$$

NOTE: "FAIR" INDICATES FEW OR NO CLOUDS BELOW 12,000 FEET WITH NO
SIGNIFICANT WEATHER AND/OR OBSTRUCTIONS TO VISIBILITY. WIND
SPEEDS ARE IN MILES-PER-HOUR.




USA.gov is the U.S. government's official web portal to all federal, state and local government web resources and services.